This is the latest recevied weather packets stored in our database for station/object K3CHZ. If no packets are shown the sender has not sent any weather packets the latest 10 day(s).
| Time | Temp. | Humidity | Pressure | Rain* | Wind** | Luminosity | Snow |
|---|---|---|---|---|---|---|---|
| 1778242642 | 7.78° C | 77% | 1015.6 hPa | 0 mm | - | - | - |
| 1778242343 | 7.22° C | 80% | 1015.7 hPa | 0 mm | - | - | - |
| 1778242041 | 7.22° C | 81% | 1015.7 hPa | 0 mm | - | - | - |
| 1778241441 | 6.11° C | 83% | 1015.5 hPa | 0 mm | - | - | - |
| 1778240842 | 5.56° C | 86% | 1015.5 hPa | 0 mm | - | - | - |
| 1778240541 | 5° C | 85% | 1015.4 hPa | 0 mm | - | - | - |
| 1778240242 | 5° C | 85% | 1015.3 hPa | 0 mm | - | - | - |
| 1778239941 | 5° C | 85% | 1015.4 hPa | 0 mm | - | - | - |
| 1778239635 | 5° C | 89% | 1015.4 hPa | 0 mm | - | - | - |
| 1778239335 | 5° C | 90% | 1015.2 hPa | 0 mm | - | - | - |
| 1778239037 | 5° C | 90% | 1015.2 hPa | 0 mm | - | - | - |
| 1778238735 | 5° C | 89% | 1015.1 hPa | 0 mm | - | - | - |
| 1778238436 | 5° C | 89% | 1015 hPa | 0 mm | - | - | - |
| 1778238135 | 4.44° C | 89% | 1014.9 hPa | 0 mm | - | - | - |
| 1778237835 | 4.44° C | 89% | 1014.8 hPa | 0 mm | - | - | - |
| 1778237535 | 4.44° C | 89% | 1014.7 hPa | 0 mm | - | - | - |
| 1778237235 | 4.44° C | 88% | 1014.7 hPa | 0 mm | - | - | - |
| 1778236937 | 4.44° C | 88% | 1014.7 hPa | 0 mm | - | - | - |
| 1778236635 | 4.44° C | 88% | 1014.6 hPa | 0 mm | - | - | - |
| 1778236337 | 4.44° C | 88% | 1014.6 hPa | 0 mm | - | - | - |
| 1778236035 | 4.44° C | 88% | 1014.7 hPa | 0 mm | - | - | - |
| 1778235736 | 4.44° C | 87% | 1014.7 hPa | 0 mm | - | - | - |
| 1778235435 | 4.44° C | 87% | 1014.7 hPa | 0 mm | - | - | - |
| 1778235135 | 4.44° C | 87% | 1014.5 hPa | 0 mm | - | - | - |
| 1778234836 | 4.44° C | 87% | 1014.5 hPa | 0 mm | - | - | - |
* Rain latest hour (hover to see other rain measurements)
** Current wind speed in m/s (hover to see current wind gust speed)